Vorticity
nan nan nan nan nan nan nan nan nan nan nan nan nan nan nan nan nan nan nan nan nan nan nan nan nan nan nan nan nan nan nan nan
nan 14 14 13 11 11 9 6 4 4 7 8 7 8 7 7 10 9 7 7 7 5 5 8 7 7 8 7 7 7 6 nan
nan 13 14 12 10 11 9 8 5 2 4 7 8 8 8 7 10 11 8 8 6 5 6 8 7 7 10 8 6 5 8 nan
nan 7 13 12 10 11 9 10 6 5 3 4 6 5 7 9 9 12 10 9 7 7 6 5 7 7 9 9 9 6 5 nan
nan 9 10 10 11 10 11 9 7 8 8 5 7 4 5 6 6 9 12 12 8 7 6 6 5 8 8 8 8 7 8 nan
nan 9 5 9 13 9 13 10 9 8 7 4 7 5 5 7 11 11 10 11 12 8 7 7 5 7 9 9 9 6 5 nan
nan 7 10 10 8 12 11 11 10 8 7 8 6 6 4 6 8 9 11 11 14 13 8 6 8 7 8 8 9 8 5 nan
nan 9 8 10 10 7 10 12 9 9 8 8 7 8 8 6 5 8 8 8 10 14 10 6 7 8 7 8 9 9 8 nan
nan 13 10 8 9 11 14 8 10 10 8 8 7 6 5 10 7 5 8 9 11 12 10 8 8 7 7 6 8 10 9 nan
nan 13 11 11 11 13 11 10 10 10 9 9 8 8 7 7 8 4 6 8 9 12 11 10 9 9 8 5 7 9 8 nan
nan 13 12 13 12 10 11 14 10 11 10 7 10 10 8 7 9 9 7 8 8 8 10 10 9 9 9 6 6 9 6 nan
nan 24 17 14 13 10 12 13 11 10 10 9 8 9 9 7 7 8 8 9 10 9 10 9 10 9 9 7 7 9 8 nan
nan 20 20 25 21 18 13 10 12 10 9 9 8 8 9 8 8 8 9 9 9 9 9 9 9 10 10 9 8 8 10 nan
nan 14 15 18 20 20 19 17 13 12 9 8 9 10 9 9 10 9 9 10 10 9 9 9 10 10 9 9 9 9 10 nan
nan 11 13 13 14 16 19 17 16 19 16 10 9 11 10 9 10 11 10 10 10 10 10 9 9 10 11 10 10 9 9 nan
nan 8 11 12 12 13 15 16 18 19 18 15 10 9 9 10 10 11 11 10 9 10 9 11 10 9 13 15 12 10 8 nan
nan 11 6 9 11 13 13 12 15 19 21 18 15 14 10 10 9 9 10 11 11 9 10 10 8 10 16 14 11 11 11 nan
nan 13 10 7 8 9 10 12 13 16 20 21 17 17 16 10 10 10 10 10 11 12 12 11 11 10 15 13 8 7 10 nan
nan nan nan nan nan nan nan nan nan nan nan nan nan nan nan nan nan nan nan nan nan nan nan nan nan nan nan nan nan nan nan nan
CAPE
0 0 0 392 1052 1392 1372 1543 1387 1865 1649 1532 1306 1299 1288 1149 1083 938 814 824 514 410 76 89 141 26 17 9 18 229 947 1222
0 0 0 543 1104 1377 1437 1435 1523 1570 1723 1757 1631 1535 1409 1316 998 976 942 865 714 516 119 159 191 52 44 62 48 404 993 1286
0 0 14 843 1217 1486 1436 1472 1500 1773 1723 1767 1473 1428 1214 1123 678 869 1199 1097 864 536 351 201 225 76 182 439 277 119 776 1410
0 0 0 979 1324 1550 1536 1549 1543 1828 1701 1499 1320 1246 1134 768 656 790 1234 1317 1051 711 475 348 459 208 292 781 866 265 463 1237
0 0 0 572 1362 1589 1723 1642 1552 1632 1458 1326 1408 1235 968 744 735 741 1344 1372 1232 892 630 614 817 555 816 858 939 699 858 1149
0 0 0 0 1220 1591 1902 1832 1671 1481 1493 1480 1423 1029 1018 737 650 893 933 1386 1455 1116 1121 1049 1126 1033 1297 1644 1465 1491 1046 1065
0 0 0 0 463 1711 1906 1844 1801 1694 1599 1789 1688 1596 1100 876 1096 1138 1275 1443 1791 1763 1314 1606 1588 1403 1457 1572 1796 1494 1498 1468
0 0 0 0 0 948 2189 1880 1833 1939 2142 1999 2026 1884 1810 1394 1262 1357 1130 1686 1886 2026 1758 1814 1739 1729 1392 1327 1931 1945 2007 1839
0 0 0 0 0 0 1940 1870 1760 1916 2224 2349 2329 2163 1796 1701 1454 1450 1521 1731 1784 2032 2044 2009 1745 1583 1528 1546 1745 2038 2183 2494
0 0 0 0 0 0 2121 2134 1738 1898 2511 2608 2463 2052 1868 1679 1648 1717 1798 1804 1692 1994 2131 2156 2051 1837 1738 1790 1635 1906 2064 2510
0 0 0 0 0 0 827 2706 2128 2266 2592 2459 2344 2141 1941 2167 1970 1830 1859 2034 1638 1492 1941 2102 2010 1963 1880 1859 1694 1765 1884 2129
0 0 0 0 0 0 83 2511 2105 2404 2541 2329 2317 2386 2303 2482 2230 2037 2054 2139 1834 1826 1822 1864 1884 1925 1964 1935 1801 1645 1785 1964
0 1 0 0 0 0 0 346 2414 2593 2614 2460 2438 2622 2654 2657 2540 2551 2522 2403 2494 2532 2025 1759 1818 1636 1937 1984 1878 1604 1808 2135
0 0 0 0 0 34 0 0 140 1697 2075 2395 2908 2861 2486 2644 2619 2641 2827 2920 2719 2394 2153 2413 2441 2397 2350 2239 2078 2019 2038 2254
16 0 0 0 0 0 1 41 0 57 1087 2241 2615 2860 2804 2857 2788 2857 2738 2839 2907 2831 2831 2726 2644 2480 2422 2335 2040 1787 1662 1707
9 12 4 1 0 0 7 29 155 114 43 884 2610 2880 2726 2758 2592 2925 3037 3126 2963 2678 2818 2638 2671 2249 2112 2316 1877 1612 1533 1065
1 6 9 5 0 0 0 0 2 5 192 4 854 1964 2200 2448 2610 2591 2885 2963 2897 2694 2767 2561 2100 1747 1444 1041 1446 1185 1187 800
10 5 9 5 2 0 0 0 3 6 4 53 96 303 1650 2375 2388 2526 2599 2911 2905 2915 2492 2038 1779 1605 671 112 267 1152 1172 845
16 15 4 2 2 0 0 0 0 0 5 7 7 109 43 1036 2009 2396 2656 2816 2704 2500 2119 1713 1190 1180 136 0 0 504 798 327